Location: Althorst
(53.6379°N, 10.7715°E)
Time: 03:45:34
(UTC+00:00)

COSMOS 2428 - Pass Details

Date: 10 December 2019
Orbit: 844 x 858 km, 70.9° (Epoch: 27 January)

Event Time Altitude Azimuth Distance (km) Brightness Sun altitude
Rises 16:39:35 0° 214° (SW) 3,395 6.8 -14.0°
Reaches altitude 10° 16:42:01 10° 216° (SW) 2,465 6.0 -14.4°
Maximum altitude 16:47:41 79° 303° (WNW) 870 2.8 -15.2°
Enters shadow 16:52:37 14° 30° (NNE) 2,188 4.4 -15.8°
